Theta_e
348 347 347 349 345 345 347 347 348 347 348 349 348 348 347 347 347 348 349 349 347 348 351 350 346 346 347 348 348 349 348 347 353
349 348 347 347 347 343 346 346 348 348 348 350 349 349 350 349 347 346 348 346 345 346 347 350 347 347 347 347 347 346 349 348 347
345 347 346 346 346 345 343 344 347 347 349 350 349 349 349 350 350 349 348 347 346 346 346 347 347 347 345 347 348 348 347 346 347
341 343 347 346 346 346 344 343 344 346 348 349 349 349 349 350 351 351 348 349 347 346 346 346 346 345 345 345 347 350 346 346 346
349 349 349 349 345 345 346 346 344 346 347 348 349 348 350 350 351 350 350 350 349 346 346 347 347 346 345 346 348 348 346 347 352
349 350 347 346 346 346 346 347 347 345 346 346 348 348 344 350 350 349 350 350 348 348 346 346 346 346 347 349 348 349 349 348 351
348 350 350 348 347 348 347 347 348 348 346 346 350 348 347 349 350 350 350 352 351 348 346 347 346 346 345 348 348 349 352 350 346
348 350 350 349 349 349 347 347 348 349 348 349 348 350 349 349 347 349 350 351 350 350 350 348 346 345 346 346 347 349 347 347 347
349 349 347 346 346 346 347 346 347 346 345 348 346 346 346 346 346 345 346 348 349 349 348 350 348 348 352 349 347 347 347 347 346
346 347 348 347 345 344 346 345 343 343 346 345 347 345 345 343 344 344 345 345 345 346 349 348 347 347 346 345 346 346 346 345 346
345 346 346 346 344 344 346 345 344 342 342 342 342 342 342 343 342 342 346 344 343 343 343 343 344 344 343 343 343 343 342 343 343
342 343 340 342 342 342 343 345 345 342 341 340 339 339 339 338 342 341 342 343 342 342 342 340 340 339 339 340 341 342 340 339 340
339 338 338 339 337 338 340 340 340 339 339 339 339 340 341 339 341 342 341 341 342 341 341 340 338 336 337 338 338 340 340 340 339
336 336 335 334 335 337 338 339 337 337 338 337 337 338 340 341 341 341 342 340 340 339 337 335 334 334 332 333 333 334 337 336 336
336 336 335 334 335 336 337 339 338 338 335 336 336 337 338 337 338 337 338 339 333 331 331 328 326 326 328 328 329 331 333 335 336
334 334 333 335 334 333 335 336 337 336 335 335 335 335 335 335 335 333 333 332 330 328 328 326 325 324 324 323 325 327 330 332 332
335 335 335 335 336 334 333 333 334 335 335 335 334 333 332 331 332 331 329 329 329 328 326 325 324 325 325 326 325 321 322 324 325
335 335 334 334 334 333 333 333 333 333 333 333 331 329 329 326 327 329 328 328 326 326 327 326 325 323 324 325 323 319 319 319 320
335 334 334 334 334 335 333 331 332 331 331 331 329 325 322 321 321 319 319 320 320 326 328 327 325 319 322 321 318 317 317 317 317
333 334 334 334 334 333 333 332 330 330 330 329 327 324 321 319 318 318 318 317 317 317 321 324 322 320 321 320 320 320 320 317 314
Wind_Speed
5 14 17 18 19 23 24 25 24 23 21 21 20 20 20 20 18 14 11 10 9 6 8 7 6 6 6 6 6 4 3 4 1
6 11 15 21 22 24 25 24 27 27 25 23 21 20 20 20 19 17 14 14 12 8 7 9 8 8 9 9 8 7 8 4 4
3 4 9 14 20 23 24 25 27 26 25 25 26 21 19 20 20 19 16 14 12 11 8 9 10 9 8 7 9 10 7 7 10
6 6 7 12 17 24 27 18 21 23 24 24 22 22 21 19 20 18 17 15 14 12 10 12 10 8 7 7 9 11 7 7 8
4 8 9 10 17 20 23 22 21 23 24 24 24 22 21 21 19 18 16 15 15 14 14 12 11 11 11 9 8 9 7 6 5
4 5 6 5 11 16 20 20 20 20 23 26 21 21 26 18 18 18 18 17 18 17 15 14 11 10 9 8 7 8 7 7 7
5 3 4 3 6 10 14 18 19 17 20 20 17 18 20 18 18 19 19 17 16 17 17 16 16 14 11 8 8 7 6 8 10
5 3 1 3 5 7 10 12 14 15 15 13 16 14 15 17 19 18 18 17 16 16 16 17 17 16 13 11 9 9 10 10 9
5 2 3 4 5 7 10 12 11 13 17 12 11 12 12 12 10 13 18 18 17 16 17 15 17 14 9 9 11 13 12 11 9
3 3 4 3 3 5 6 9 12 12 15 14 13 14 11 11 11 10 10 11 14 15 14 13 13 12 10 10 10 10 9 7 4
4 3 6 1 1 2 4 5 8 9 10 10 11 10 10 10 12 12 9 8 9 10 12 14 13 11 9 8 7 8 5 4 3
1 4 5 8 7 5 3 3 8 9 9 12 12 11 12 11 12 15 14 12 12 10 12 13 14 14 13 9 6 6 4 3 4
7 8 9 9 11 8 7 5 10 12 9 5 7 10 10 12 11 14 17 15 15 15 14 15 13 11 9 7 4 7 7 7 6
11 10 9 9 8 6 8 16 16 15 15 13 12 11 6 13 13 14 15 15 16 17 17 16 14 10 8 5 3 2 4 4 4
10 9 12 9 5 7 10 14 13 11 12 8 7 6 9 10 12 12 17 16 15 16 17 16 14 13 11 7 6 4 3 3 4
10 6 11 6 6 13 9 10 12 14 10 10 12 15 15 12 14 16 16 18 20 19 18 17 16 12 10 9 9 10 8 9 8
7 2 5 6 8 14 17 17 19 19 16 16 19 21 19 18 20 20 16 16 17 17 16 12 11 9 9 9 8 8 9 12 13
12 7 6 6 8 14 17 18 17 16 17 18 19 18 16 15 16 18 19 19 14 12 11 11 9 8 8 9 11 10 10 9 10
11 8 8 8 10 13 13 16 16 15 13 15 18 17 14 12 13 12 12 13 13 11 10 8 9 10 10 15 16 16 14 12 12
10 9 9 10 11 11 11 13 15 13 12 13 14 14 12 12 10 10 10 10 10 11 11 10 9 10 13 15 16 13 12 13 13
Wind_Direction
212 219 217 218 214 207 212 208 204 207 209 210 212 212 219 222 226 232 238 230 222 239 230 200 206 221 225 234 238 250 258 246 241
266 248 225 220 213 211 210 201 204 206 211 218 211 215 218 219 228 227 233 235 234 241 246 214 218 235 234 234 231 232 237 254 281
286 285 230 227 219 214 211 210 204 207 212 214 216 214 218 222 220 225 230 234 235 238 236 225 230 238 247 252 236 232 247 264 264
300 289 250 228 223 216 217 213 206 209 208 212 214 209 210 212 215 224 230 229 239 250 253 243 234 229 249 254 242 236 231 251 269
308 297 288 245 226 222 218 215 207 208 207 208 211 209 205 209 216 223 226 227 237 248 258 259 246 249 250 241 238 241 241 256 269
333 319 313 262 222 215 215 214 208 204 201 205 209 212 221 208 212 220 229 225 231 242 247 249 241 239 237 240 249 242 257 270 276
321 309 318 276 228 224 217 214 207 204 202 206 211 210 215 212 212 218 225 229 226 230 232 238 247 256 257 247 247 251 258 275 283
305 315 292 258 221 214 211 211 209 195 186 192 200 197 207 216 225 224 224 228 229 228 226 233 242 247 245 247 247 239 251 265 271
322 322 285 259 239 217 210 193 192 170 182 176 178 192 196 196 199 211 218 216 218 223 227 227 234 240 230 216 232 243 254 269 274
300 341 334 277 263 240 224 182 171 172 158 158 161 167 158 154 169 179 190 204 214 219 217 216 218 217 209 212 223 240 249 246 234
266 335 353 274 108 155 170 160 180 181 171 177 181 175 170 173 182 176 166 173 190 201 201 202 205 198 198 198 193 164 164 182 162
254 44 59 70 73 45 1 233 201 185 186 203 195 189 180 183 183 172 163 159 156 155 148 147 145 147 144 148 155 178 181 195 158
103 86 76 81 76 53 53 71 145 127 111 138 211 206 205 208 194 200 191 180 169 162 156 152 151 151 152 169 192 221 218 222 225
90 83 87 89 90 88 79 90 91 99 91 75 72 94 150 192 199 200 195 181 180 163 156 152 144 144 129 133 156 157 192 183 207
85 83 88 79 78 75 87 124 128 102 85 98 112 90 102 87 113 134 160 161 153 149 144 130 117 112 104 97 92 89 106 142 169
77 42 86 96 115 88 100 130 139 113 111 115 111 112 108 117 113 116 132 136 134 130 127 123 118 106 92 78 79 90 111 109 112
111 207 109 114 111 90 86 108 123 124 126 121 111 106 105 108 108 112 110 113 123 125 128 122 121 114 102 97 87 88 87 101 105
148 159 136 145 111 99 98 106 109 121 126 124 116 112 113 108 108 112 114 117 119 122 131 126 109 106 108 108 100 90 97 103 104
146 152 147 131 114 109 112 110 105 107 115 120 121 113 106 109 111 112 111 111 106 118 124 129 123 115 123 115 113 104 96 91 94
151 155 156 144 137 125 117 111 108 118 126 130 123 114 112 111 115 115 111 108 118 111 102 122 122 118 129 126 123 114 108 105 100